This is the latest recevied weather packets stored in our database for station/object KJ5JYX. If no packets are shown the sender has not sent any weather packets the latest 10 day(s).
| Time | Temp. | Humidity | Pressure | Rain* | Wind** | Luminosity | Snow |
|---|---|---|---|---|---|---|---|
| 1777594921 | 17.22° C | 99% | 1013.7 hPa | 3.05 mm | - | 6 W/m² | - |
| 1777594618 | 17.22° C | 99% | 1013.2 hPa | 1.78 mm | - | 9 W/m² | - |
| 1777594315 | 17.22° C | 99% | 1013.4 hPa | 1.27 mm | - | 6 W/m² | - |
| 1777594011 | 17.78° C | 99% | 1013.7 hPa | 1.27 mm | - | 4 W/m² | - |
| 1777593707 | 17.78° C | 99% | 1013.7 hPa | 0 mm | - | 6 W/m² | - |
| 1777593403 | 17.78° C | 99% | 1012.7 hPa | 0 mm | - | 12 W/m² | - |
| 1777593102 | 17.78° C | 99% | 1013.2 hPa | 0 mm | - | 9 W/m² | - |
| 1777592801 | 17.78° C | 99% | 1012.7 hPa | 0 mm | - | 10 W/m² | - |
| 1777592497 | 17.78° C | 99% | 1012.6 hPa | 0 mm | - | 13 W/m² | - |
| 1777592193 | 17.78° C | 99% | 1013 hPa | 0 mm | - | 15 W/m² | - |
| 1777591890 | 17.78° C | 99% | 1012.1 hPa | 0 mm | - | 17 W/m² | - |
| 1777591586 | 17.78° C | 99% | 1012.1 hPa | 0 mm | - | 17 W/m² | - |
| 1777591282 | 18.33° C | 99% | 1012 hPa | 0 mm | - | 36 W/m² | - |
| 1777590978 | 18.33° C | 99% | 1012.1 hPa | 0 mm | - | 51 W/m² | - |
| 1777590674 | 18.33° C | 99% | 1012.1 hPa | 1.78 mm | - | 57 W/m² | - |
| 1777590370 | 18.33° C | 99% | 1012.1 hPa | 1.78 mm | - | 90 W/m² | - |
| 1777590068 | 18.33° C | 99% | 1012.3 hPa | 1.27 mm | - | 112 W/m² | - |
| 1777589764 | 17.78° C | 99% | 1012.8 hPa | 3.05 mm | - | 70 W/m² | - |
| 1777589462 | 17.78° C | 99% | 1012.5 hPa | 1.78 mm | - | 43 W/m² | - |
| 1777589158 | 17.78° C | 99% | 1012.5 hPa | 0 mm | - | 26 W/m² | - |
| 1777588854 | 17.78° C | 99% | 1011.9 hPa | 1.27 mm | - | 24 W/m² | - |
| 1777588550 | 17.78° C | 99% | 1012.8 hPa | 3.05 mm | - | 15 W/m² | - |
| 1777588246 | 18.33° C | 99% | 1012.8 hPa | 4.83 mm | - | 11 W/m² | - |
| 1777587940 | 18.33° C | 99% | 1012.3 hPa | 8.89 mm | - | 11 W/m² | - |
| 1777587638 | 18.33° C | 99% | 1013.7 hPa | 11.94 mm | - | 11 W/m² | - |
* Rain latest hour (hover to see other rain measurements)
** Current wind speed in m/s (hover to see current wind gust speed)